Hourly Data Report for June 12, 2021

ATIKOKAN (AUT)
ONTARIO
Current Station Operator: ECCC - MSC

48°45'40.000" N
91°37'41.000" W
389.30 m
6020LPQ
71747
WCH

Download Data

Hourly Data (June 2021)
Hourly Data Report for June 12, 2021
TIME
LST
Temp Definition
°C
Dew Point Definition
°C
Rel Hum Definition
%
Precip. Amount Definition
mm

Wind Dir Definition
10's deg

Wind Spd Definition
km/h
Visibility Definition
km
Stn Press Definition
kPa
Hmdx Definition


Wind Chill Definition


Weather Definition


00:00 15.0 14.5 97 0.0 14 5   96.54     LegendNANA
01:00 15.4 15.0 97 0.0 16 5   96.51     LegendNANA
02:00 15.2 14.8 97 0.0 18 5   96.48     LegendNANA
03:00 14.9 14.2 96 0.0 25 4   96.47     LegendNANA
04:00 14.7 12.6 88 0.0 24 5   96.45     LegendNANA
05:00 14.8 13.0 89 0.0 24 5   96.48     LegendNANA
06:00 15.8 11.5 76 0.0 25 10   96.48     LegendNANA
07:00 17.6 11.6 68 0.0 25 11   96.49     LegendNANA
08:00 18.3 11.8 65 0.0 26 14   96.49     LegendNANA
09:00 19.6 12.1 62 0.1 26 14   96.49     LegendNANA
10:00 20.1 11.8 59 0.1 26 18   96.51     LegendNANA
11:00 21.4 11.7 54 0.1 28 16   96.51     LegendNANA
12:00 21.9 11.7 52 0.0 27 15   96.52     LegendNANA
13:00 22.5 11.1 49 0.0 27 16   96.53     LegendNANA
14:00 23.5 10.1 43 0.0 27 15   96.52 25   LegendNANA
15:00 24.5 9.2 38 0.0 29 15   96.53 25   LegendNANA
16:00 23.7 8.8 39 0.0 30 13   96.56     LegendNANA
17:00 24.2 8.6 37 0.0 29 12   96.56 25   LegendNANA
18:00 23.6 7.8 36 0.0 30 10   96.59     LegendNANA
19:00 22.9 8.5 40 0.0 28 5   96.60     LegendNANA
20:00 18.2 9.2 56 0.0 26 3   96.67     LegendNANA
21:00 14.2 10.5 78 0.0 28 1   96.75     LegendNANA
22:00 12.3 10.3 87 0.0 28 2   96.79     LegendNANA
23:00 11.4 9.7 89 0.0   0   96.80     LegendNANA

Notes on Data Quality.

Legend

  • E = Estimated
  • M = Missing
  • NA = Not Available*
  • [empty] = Indicates an unobserved value
Date modified: